TimeCST,TemperatureF,Dew PointF,Humidity,Sea Level PressureIn,VisibilityMPH,Wind Direction,Wind SpeedMPH,Gust SpeedMPH,PrecipitationIn,Events,Conditions,WindDirDegrees,DateUTC
12:15 AM,51.8,50.0,94,30.19,0.8,Calm,Calm,-,0.01,,Overcast,0,2013-11-22 06:15:00
12:35 AM,51.8,48.2,88,30.19,0.8,Calm,Calm,-,0.01,,Overcast,0,2013-11-22 06:35:00
12:55 AM,51.8,50.0,94,30.20,2.5,Calm,Calm,-,0.02,,Overcast,0,2013-11-22 06:55:00
1:15 AM,51.8,50.0,94,30.20,1.8,Calm,Calm,-,N/A,,Overcast,0,2013-11-22 07:15:00
1:35 AM,51.8,50.0,94,30.21,2.5,Calm,Calm,-,0.01,,Overcast,0,2013-11-22 07:35:00
1:55 AM,51.8,48.2,88,30.21,0.8,Calm,Calm,-,0.01,,Overcast,0,2013-11-22 07:55:00
2:15 AM,51.8,48.2,88,30.21,1.5,Calm,Calm,-,N/A,,Overcast,0,2013-11-22 08:15:00
2:35 AM,51.8,50.0,94,30.21,3.0,Calm,Calm,-,N/A,,Overcast,0,2013-11-22 08:35:00
2:55 AM,51.8,48.2,88,30.21,3.0,WNW,3.5,-,N/A,,Overcast,290,2013-11-22 08:55:00
3:15 AM,51.8,48.2,88,30.21,2.0,Calm,Calm,-,N/A,,Overcast,0,2013-11-22 09:15:00
3:35 AM,51.8,48.2,88,30.21,2.5,NW,3.5,-,N/A,,Overcast,310,2013-11-22 09:35:00
3:55 AM,51.8,48.2,88,30.21,2.5,Calm,Calm,-,N/A,,Overcast,0,2013-11-22 09:55:00
4:15 AM,51.8,48.2,88,30.23,5.0,Calm,Calm,-,N/A,,Overcast,0,2013-11-22 10:15:00
4:35 AM,51.8,48.2,88,30.23,7.0,Calm,Calm,-,N/A,,Overcast,0,2013-11-22 10:35:00
4:55 AM,51.8,48.2,88,30.24,6.0,North,3.5,-,N/A,,Overcast,350,2013-11-22 10:55:00
5:15 AM,50.0,48.2,94,30.25,5.0,NNW,4.6,-,N/A,,Overcast,340,2013-11-22 11:15:00
5:35 AM,50.0,46.4,87,30.26,8.0,NNW,3.5,-,N/A,,Overcast,340,2013-11-22 11:35:00
5:55 AM,48.2,46.4,93,30.27,5.0,NW,5.8,-,N/A,,Overcast,320,2013-11-22 11:55:00
6:15 AM,48.2,44.6,87,30.28,4.0,NNW,4.6,-,N/A,,Overcast,330,2013-11-22 12:15:00
6:35 AM,48.2,44.6,87,30.29,4.0,NNW,5.8,-,N/A,,Overcast,340,2013-11-22 12:35:00
6:55 AM,46.4,42.8,87,30.30,5.0,NW,8.1,-,N/A,,Overcast,310,2013-11-22 12:55:00
7:15 AM,46.4,42.8,87,30.32,8.0,NNW,3.5,-,N/A,,Overcast,340,2013-11-22 13:15:00
7:35 AM,44.6,42.8,93,30.32,8.0,NNW,5.8,-,N/A,,Overcast,330,2013-11-22 13:35:00
7:55 AM,44.6,41.0,87,30.34,5.0,NNW,5.8,-,N/A,,Overcast,330,2013-11-22 13:55:00
8:15 AM,44.6,41.0,87,30.35,5.0,NNW,5.8,-,N/A,,Overcast,340,2013-11-22 14:15:00
8:35 AM,44.6,39.2,81,30.36,3.0,NW,5.8,-,N/A,,Overcast,320,2013-11-22 14:35:00
8:55 AM,44.6,39.2,81,30.36,3.0,NNW,3.5,-,N/A,,Overcast,330,2013-11-22 14:55:00
9:15 AM,44.6,39.2,81,30.37,3.0,NW,4.6,-,N/A,,Overcast,320,2013-11-22 15:15:00
9:35 AM,44.6,39.2,81,30.38,3.0,NNW,4.6,-,N/A,,Overcast,330,2013-11-22 15:35:00
9:55 AM,44.6,37.4,76,30.38,4.0,North,6.9,-,N/A,,Overcast,350,2013-11-22 15:55:00
10:15 AM,44.6,39.2,81,30.39,4.0,NW,3.5,-,N/A,,Overcast,320,2013-11-22 16:15:00
10:35 AM,42.8,39.2,87,30.39,4.0,NW,4.6,-,N/A,,Overcast,320,2013-11-22 16:35:00
10:55 AM,42.8,37.4,81,30.39,5.0,NNW,6.9,-,N/A,,Overcast,330,2013-11-22 16:55:00
11:15 AM,42.8,39.2,87,30.39,8.0,NNW,4.6,-,N/A,,Overcast,340,2013-11-22 17:15:00
11:35 AM,42.8,37.4,81,30.39,9.0,North,4.6,-,N/A,,Overcast,350,2013-11-22 17:35:00
11:55 AM,44.6,39.2,81,30.39,10.0,NNW,5.8,-,N/A,,Overcast,330,2013-11-22 17:55:00
12:15 PM,42.8,37.4,81,30.39,8.0,NNW,8.1,-,N/A,,Overcast,340,2013-11-22 18:15:00
12:35 PM,42.8,37.4,81,30.39,7.0,Calm,Calm,-,N/A,,Overcast,0,2013-11-22 18:35:00
12:55 PM,42.8,37.4,81,30.39,6.0,North,5.8,-,N/A,,Overcast,350,2013-11-22 18:55:00
1:15 PM,42.8,37.4,81,30.40,5.0,NW,3.5,-,N/A,,Overcast,310,2013-11-22 19:15:00
1:35 PM,41.0,37.4,87,30.39,5.0,North,5.8,-,N/A,,Overcast,350,2013-11-22 19:35:00
1:55 PM,42.8,37.4,81,30.39,6.0,North,6.9,-,N/A,,Overcast,360,2013-11-22 19:55:00
2:15 PM,42.8,35.6,76,30.41,8.0,North,3.5,-,N/A,,Overcast,350,2013-11-22 20:15:00
2:35 PM,42.8,35.6,76,30.41,8.0,North,3.5,-,N/A,,Overcast,350,2013-11-22 20:35:00
2:55 PM,42.8,35.6,76,30.41,10.0,North,5.8,-,N/A,,Overcast,10,2013-11-22 20:55:00
3:15 PM,42.8,35.6,76,30.41,10.0,North,3.5,-,N/A,,Overcast,360,2013-11-22 21:15:00
3:35 PM,42.8,35.6,76,30.42,10.0,North,6.9,-,N/A,,Overcast,350,2013-11-22 21:35:00
3:55 PM,42.8,35.6,76,30.42,10.0,North,5.8,-,N/A,,Overcast,360,2013-11-22 21:55:00
4:15 PM,42.8,35.6,76,30.44,10.0,North,4.6,-,N/A,,Overcast,360,2013-11-22 22:15:00
4:35 PM,42.8,35.6,76,30.45,10.0,NNW,8.1,-,N/A,,Overcast,340,2013-11-22 22:35:00
4:55 PM,41.0,33.8,76,30.46,10.0,North,10.4,-,N/A,,Overcast,350,2013-11-22 22:55:00
5:15 PM,41.0,33.8,76,30.46,10.0,North,8.1,-,N/A,,Overcast,350,2013-11-22 23:15:00
5:35 PM,41.0,33.8,76,30.47,10.0,North,5.8,-,N/A,,Overcast,360,2013-11-22 23:35:00
5:55 PM,39.2,33.8,81,30.48,10.0,North,6.9,-,N/A,,Overcast,350,2013-11-22 23:55:00
6:15 PM,39.2,33.8,81,30.48,10.0,North,8.1,-,N/A,,Overcast,360,2013-11-23 00:15:00
6:35 PM,39.2,33.8,81,30.47,10.0,North,8.1,-,N/A,,Overcast,360,2013-11-23 00:35:00
6:55 PM,39.2,33.8,81,30.47,10.0,North,5.8,16.1,N/A,,Overcast,360,2013-11-23 00:55:00
7:15 PM,39.2,32.0,75,30.47,10.0,North,8.1,17.3,N/A,,Overcast,10,2013-11-23 01:15:00
7:35 PM,39.2,30.2,70,30.47,10.0,North,8.1,-,N/A,,Overcast,10,2013-11-23 01:35:00
7:55 PM,39.2,33.8,81,30.47,10.0,North,4.6,-,N/A,,Overcast,10,2013-11-23 01:55:00
8:15 PM,39.2,30.2,70,30.48,10.0,North,8.1,-,N/A,,Overcast,10,2013-11-23 02:15:00
8:35 PM,39.2,30.2,70,30.48,10.0,North,6.9,-,N/A,,Overcast,360,2013-11-23 02:35:00
8:55 PM,37.4,30.2,75,30.48,10.0,North,5.8,-,N/A,,Overcast,350,2013-11-23 02:55:00
9:15 PM,37.4,30.2,75,30.49,10.0,North,8.1,-,N/A,,Overcast,360,2013-11-23 03:15:00
9:35 PM,37.4,30.2,75,30.48,10.0,North,4.6,-,N/A,,Overcast,10,2013-11-23 03:35:00
9:55 PM,37.4,30.2,75,30.47,10.0,North,8.1,-,N/A,,Overcast,360,2013-11-23 03:55:00
10:15 PM,37.4,30.2,75,30.48,10.0,North,5.8,-,N/A,,Overcast,360,2013-11-23 04:15:00
10:35 PM,37.4,28.4,70,30.48,10.0,North,8.1,-,N/A,,Scattered Clouds,10,2013-11-23 04:35:00
10:55 PM,37.4,28.4,70,30.49,10.0,North,5.8,-,N/A,,Clear,360,2013-11-23 04:55:00
11:15 PM,37.4,28.4,70,30.48,10.0,North,8.1,-,N/A,,Clear,360,2013-11-23 05:15:00
11:35 PM,37.4,28.4,70,30.48,10.0,North,5.8,-,N/A,,Clear,10,2013-11-23 05:35:00
11:55 PM,37.4,28.4,70,30.48,10.0,North,4.6,-,N/A,,Clear,360,2013-11-23 05:55:00